Miscellaneous Local Product
Issued by NWS Hastings, NE

Home | Current Version | Previous Version | Graphics & Text | Print | Product List | Glossary On
Versions: 1 2 3 4 5 6 7 8 9 10 11 12 13 14 15 16 17 18 19 20 21 22 23 24 25 26 27 28 29 30 31 32 33 34 35 36 37 38 39 40 41 42 43 44 45 46 47 48 49 50
000
AXUS43 KGID 210602
MISGRI

GID CWA HOURLY WEATHER ROUNDUP
NATIONAL WEATHER SERVICE HASTINGS NE
1200 AM CST SUN DEC 21 2014

NOTE: "FAIR" INDICATES FEW OR NO CLOUDS BELOW 12,000 FEET WITH NO
SIGNIFICANT WEATHER AND/OR OBSTRUCTIONS TO VISIBILITY.

...SOUTH CENTRAL NEBRASKA...

CITY           SKY/WX    TMP DP  RH WIND       PRES   REMARKS
GRAND ISLAND   CLOUDY    28  27  96 CALM      29.94F FOG
HASTINGS       FOG       29  27  92 S5        29.93F VSB 1/4 WCI  24
KEARNEY        CLEAR     28  27  93 S6        29.92S WCI  22
ORD            FOG       25  24  96 CALM      29.91F VSB 1/4
YORK           FOG       34  34 100 S7        29.96S VSB 1/4 WCI  28
AURORA         FOG       32  32 100 S5        29.94F VSB 1/4 WCI  27
LEXINGTON      CLEAR     26  25  94 NW5       29.92S WCI  21
HOLDREGE       CLEAR     33  30  87 SW3       29.92S
HEBRON         PTCLDY    37  34  90 SW14G20   29.98S WCI  28

...NEBRASKA PANHANDLE...

CITY           SKY/WX    TMP DP  RH WIND       PRES   REMARKS
CHADRON        MOCLDY    29  24  82 SW6       29.84F WCI  23
ALLIANCE       CLOUDY    23  20  88 W3        29.86F
SCOTTSBLUFF    CLOUDY    38  29  70 NW6       29.88F WCI  33
SIDNEY         CLOUDY    30  24  78 CALM      29.89F

...WESTERN AND NORTH CENTRAL NEBRASKA...

CITY           SKY/WX    TMP DP  RH WIND       PRES   REMARKS
VALENTINE      MOCLDY    25  22  88 SW6       29.86F WCI  18
AINSWORTH      PTCLDY    27  22  84 SW3       29.87S
ONEILL         FOG       31  31 100 S5        29.90S VSB 1/2 WCI  26
BROKEN BOW     CLEAR     26  24  92 SW5       29.90F WCI  20
IMPERIAL       MOCLDY    32  25  75 SW9       29.91F WCI  24
NORTH PLATTE   MOCLDY    26  24  92 NW3       29.91F
MCCOOK         PTCLDY    26  24  92 W5        29.92F WCI  20

...EASTERN NEBRASKA...

CITY           SKY/WX    TMP DP  RH WIND       PRES   REMARKS
NORFOLK        FOG       33  33 100 S8        29.94F VSB 1/4 WCI  26
SO SIOUX CITY  CLOUDY    33  31  92 SE9       29.99F FOG     WCI  25
TEKAMAH        CLOUDY    34  32  92 SE12      30.01F FOG     WCI  25
COLUMBUS       CLOUDY    34  30  86 CALM      29.98F VSB 1/4
ALBION         FOG       32  31  96 S7        29.94S VSB 1/2 WCI  26
OMAHA EPPLEY   FOG       35  34  96 SE7       30.03F VSB 1   WCI  29
OFFUTT AFB     CLOUDY    34  34  98 SE7       30.01F FOG     WCI  28
MILLARD        CLOUDY    35  34  96 SE5       30.02S FOG     WCI  31
LINCOLN        CLEAR     35  33  92 S5        30.00F FOG     WCI  31
NEBRASKA CITY  MOCLDY    33  33 100 S9        30.03S FOG     WCI  25
BEATRICE       CLEAR     36  35  94 S9        30.00F WCI  29
FALLS CITY     PTCLDY    35  33  92 S7        30.05S WCI  29

...NORTHERN KANSAS...

CITY           SKY/WX    TMP DP  RH WIND       PRES   REMARKS
GOODLAND       MOCLDY    37  28  70 SW10      29.93S WCI  30
HILL CITY      PTCLDY    36  33  89 SW8       29.96F WCI  30
NORTON         CLEAR     30  27  86 SW8       29.93R WCI  23
PHILLIPSBURG   CLEAR     37  37 100 SW6       29.96S WCI  33
SMITH CENTER   CLEAR     36  34  93 S10       29.97S WCI  28
BELOIT         CLEAR     36  36 100 S10       29.99F WCI  28
HAYS           PTCLDY    32  25  74 SW5       29.99S WCI  27
RUSSELL        PTCLDY    35  34  96 S14       29.98F WCI  26
CONCORDIA      PTCLDY    36  35  96 S16       29.99F WCI  26
SALINA         CLOUDY    42  37  82 S16       30.03F
TOPEKA         CLEAR    N/A N/A N/A S8        30.09F



USA.gov is the U.S. government's official web portal to all federal, state and local government web resources and services.